Tracking 27380 objects as of 5-Jun-2023
HD Live streaming from Space Station
objects crossing your sky now

THOR ABLESTAR DEB

Track THOR ABLESTAR DEB now!
10-day predictions


NORAD ID: 656
Int'l Code: 1961-015HH
Perigee: 864.7 km
Apogee: 1,918.1 km
Inclination: 66.3 °
Period: 113.4 minutes
Semi major axis: 7762 km
RCS: 0.0195 m2 (small)
Launch date: June 29, 1961
Source: United States (US)
Launch site: AIR FORCE EASTERN TEST RANGE (AFETR)

Note: This is SATELLITE DEBRIS
Your satellite tracking list
Your tracking list is empty




NASA's NSSDC Master Catalog

Two Line Element Set (TLE):
1   656U 61015HH  23156.10776808  .00000613  00000-0  13526-2 0  9993
2   656  66.2896 302.9541 0678553 302.4695  51.2442 12.69427155827134
Source of the keplerian elements: AFSPC